This is the latest recevied weather packets stored in our database for station/object N2XP. If no packets are shown the sender has not sent any weather packets the latest 10 day(s).
| Time | Temp. | Humidity | Pressure | Rain* | Wind** | Luminosity | Snow |
|---|---|---|---|---|---|---|---|
| 1777874456 | 4.44° C | 79% | 1011.6 hPa | 0 mm | - | - | - |
| 1777873550 | 4.44° C | 78% | 1011.6 hPa | 0 mm | - | - | - |
| 1777872654 | 4.44° C | 78% | 1011.6 hPa | 0 mm | - | - | - |
| 1777871746 | 4.44° C | 79% | 1011.5 hPa | 0 mm | - | - | - |
| 1777870873 | 4.44° C | 79% | 1011.4 hPa | 0 mm | - | - | - |
| 1777869944 | 4.44° C | 78% | 1011.4 hPa | 0 mm | - | - | - |
| 1777869042 | 4.44° C | 77% | 1011.4 hPa | 0 mm | - | - | - |
| 1777868141 | 5° C | 76% | 1011.2 hPa | 0 mm | - | - | - |
| 1777867241 | 5° C | 76% | 1011 hPa | 0 mm | - | - | - |
| 1777866341 | 5° C | 76% | 1010.9 hPa | 0 mm | - | - | - |
| 1777865432 | 5.56° C | 76% | 1011 hPa | 0 mm | - | - | - |
| 1777864530 | 5.56° C | 74% | 1010.9 hPa | 0 mm | - | - | - |
| 1777863637 | 5.56° C | 73% | 1010.9 hPa | 0 mm | - | - | - |
| 1777862728 | 5.56° C | 71% | 1010.9 hPa | 0 mm | - | - | - |
| 1777861828 | 6.11° C | 70% | 1010.8 hPa | 0 mm | - | - | - |
| 1777860919 | 6.11° C | 70% | 1010.8 hPa | 0 mm | - | - | - |
| 1777860017 | 6.67° C | 69% | 1010.9 hPa | 0 mm | - | - | - |
| 1777859120 | 7.22° C | 65% | 1010.8 hPa | 0 mm | - | - | - |
| 1777858217 | 7.78° C | 65% | 1010.6 hPa | 0 mm | - | - | - |
| 1777857315 | 8.33° C | 63% | 1010.6 hPa | 0 mm | - | - | - |
| 1777856414 | 8.89° C | 57% | 1010.3 hPa | 0 mm | - | - | - |
| 1777855514 | 9.44° C | 54% | 1010.2 hPa | 0 mm | - | - | - |
| 1777854613 | 10° C | 53% | 1009.9 hPa | 0 mm | - | - | - |
| 1777853713 | 10.56° C | 49% | 1009.8 hPa | 0 mm | - | - | - |
| 1777852812 | 11.11° C | 46% | 1009.6 hPa | 0 mm | - | - | - |
* Rain latest hour (hover to see other rain measurements)
** Current wind speed in m/s (hover to see current wind gust speed)